Tracking 32214 objects as of 19-Nov-2025
HD Live streaming from Space Station
objects crossing your sky now

STARLINK-35628

Track STARLINK-35628 now!
10-day predictions
STARLINK-35628 is classified as:


NORAD ID: 66123
Int'l Code: 2025-237K
Perigee: 423.8 km
Apogee: 428.2 km
Inclination: 53.2 °
Period: 92.9 minutes
Semi major axis: 6796 km
RCS: Unknown
Launch date: October 22, 2025
Source: United States (US)
Launch site: AIR FORCE WESTERN TEST RANGE (AFWTR)
Your satellite tracking list
Your tracking list is empty




NASA's NSSDC Master Catalog

Two Line Element Set (TLE):
1 66123U 25237K   25322.98251206  .00083093  00000-0  14880-2 0  9990
2 66123  53.1615 199.3169 0003176  41.2121 318.9127 15.49272768  5587
Source of the keplerian elements: AFSPC